"TOA5","AWS1","CR1000","7964","CR1000.Std.14","CPU:AWS1_114.CR1","64363","TBL110"
"TIMESTAMP","RECORD","Wind_spd_WVc(1)","Wind_spd_WVc(2)","Air_Temp_Avg","Humidity_Avg","SW_upper_Wm2_Avg","Rain_Tot","Press_Avg","Issui_Tot","Depth_cm","SR50A_Raw","Quality","Ground_Temp_Avg(1)","Ground_Temp_Avg(2)","SW_lower_Wm2_Avg","Albedo_Avg","SWC_per(1)","SWC_per(2)","Period(1)","Period(2)"
"TS","RN","","","","","","","","","","","","","","","","","","",""
"","","WVc","WVc","Avg","Avg","Avg","Tot","Avg","Tot","Smp","Smp","Smp","Avg","Avg","Avg","Avg","Smp","Smp","Smp","Smp"
"2016-02-20 00:00:00",223261,0.181,211.2,0.142,29.8,0,0,873.5673,0,25.83,2.918,173,0.958,1.393,0,0,52.16,60.44,33.83,35.78
"2016-02-20 00:10:00",223262,0.186,107.4,0.583,27.13,0,0,873.4247,0,25.53,2.921,178,0.97,1.398,0.067123,0,52.16,60.44,33.83,35.78
"2016-02-20 00:20:00",223263,0.202,171.5,0.675,25.49,0,0,873.2381,0,25.22,2.923,170,0.957,1.386,0.08719359,0,52.16,60.44,33.83,35.78
"2016-02-20 00:30:00",223264,0.175,214.8,0.858,21.25,0,0,873.1631,0,25.9,2.911,177,0.942,1.376,0.2236642,0,52.16,60.44,33.83,35.78
"2016-02-20 00:40:00",223265,0.135,277.1,1.744,15.16,0.1454719,0,873.1482,0,25.83,2.914,173,0.936,1.377,0.6292864,1.015,52.16,60.44,33.83,35.78
"2016-02-20 00:50:00",223266,0.336,179,0.619,26.58,0,0,873.091,0,26.01,2.917,189,0.933,1.37,0,0,52.16,60.44,33.83,35.78
"2016-02-20 01:00:00",223267,0.381,186.5,0.619,25.51,0,0,873.2422,0,25.85,2.918,176,0.958,1.37,0,0,52.16,60.44,33.83,35.78
"2016-02-20 01:10:00",223268,0.291,190.2,0.828,22.29,0,0,873.0629,0,25.83,2.92,169,0.956,1.369,0.07202593,0,52.16,60.44,33.83,35.78
"2016-02-20 01:20:00",223269,0.404,182.8,0.527,24.73,0,0,872.8206,0,25.84,2.919,179,0.96,1.369,0,0,52.16,60.44,33.83,35.78
"2016-02-20 01:30:00",223270,0.362,193.4,0.912,19.33,0,0,873.0945,0,25.54,2.919,168,0.966,1.373,0.1250994,0,52.16,60.44,33.83,35.78
"2016-02-20 01:40:00",223271,0.096,177.1,0.878,21.03,0,0,873.0081,0,25.65,2.919,171,0.982,1.372,0,0,52.16,60.44,33.83,35.78
"2016-02-20 01:50:00",223272,0.422,180.5,0.825,19.89,0,0,873.0187,0,25.83,2.917,180,0.974,1.372,0,0,52.16,60.44,33.83,35.78
"2016-02-20 02:00:00",223273,0.392,191.4,1.038,18.45,0,0,872.8522,0,25.85,2.914,185,0.973,1.383,0.09477102,0,52.16,60.44,33.83,35.78
"2016-02-20 02:10:00",223274,0.306,184.8,0.891,21.95,0,0,872.8058,0,25.76,2.917,171,0.96,1.407,0.02653588,0,52.1,60.44,33.81,35.78
"2016-02-20 02:20:00",223275,0.297,173.9,1.016,19.64,0,0,872.4708,0,25.4,2.922,173,0.958,1.411,0.06823509,0,52.1,60.44,33.81,35.78
"2016-02-20 02:30:00",223276,0.314,185.3,0.657,24.06,0,0,872.2286,0,25.71,2.915,172,0.967,1.425,0.07581677,0,52.16,60.44,33.83,35.78
"2016-02-20 02:40:00",223277,0.294,173.5,1.335,20.45,0,0,872.178,0,25.58,2.917,174,0.98,1.394,0.2084961,0,52.1,60.44,33.81,35.78
"2016-02-20 02:50:00",223278,0.063,201.4,1.834,17.35,0,0,872.2855,0,24.95,2.921,169,0.98,1.409,0.3222213,0,52.1,60.38,33.81,35.77
"2016-02-20 03:00:00",223279,0.123,172.8,1.216,24.79,0,0,872.2518,0,25.48,2.918,192,0.979,1.405,0,0,52.1,60.44,33.81,35.78
"2016-02-20 03:10:00",223280,0.125,162.2,1.424,21.85,0,0,872.2581,0,25.31,2.919,188,0.98,1.408,0.05307174,0,52.1,60.38,33.81,35.77
"2016-02-20 03:20:00",223281,0.561,168.9,0.91,30.19,0,0,871.7882,0,26.03,2.915,181,0.98,1.422,0,0,52.1,60.44,33.81,35.78
"2016-02-20 03:30:00",223282,0.362,176.4,1.173,26.84,0,0,871.9251,0,25.25,2.921,178,0.98,1.427,0.007581678,0,52.1,60.38,33.81,35.77
"2016-02-20 03:40:00",223283,0.157,272,1.462,21.51,0,0,871.7672,0,25.72,2.911,174,0.98,1.402,0.2501954,0,52.1,60.38,33.81,35.77
"2016-02-20 03:50:00",223284,0.24,146.1,1.556,23.66,0,0,871.765,0,25.88,2.914,177,0.979,1.428,0.1099343,0,52.16,60.38,33.83,35.77
"2016-02-20 04:00:00",223285,0.299,288.1,1.486,17.17,0,0,871.6996,0,25.85,2.915,184,0.98,1.452,0,0,52.16,60.38,33.83,35.77
"2016-02-20 04:10:00",223286,0.343,162.6,0.705,26.82,0,0,871.3226,0,25.87,2.918,170,0.98,1.454,0,0,52.1,60.38,33.81,35.77
"2016-02-20 04:20:00",223287,0.626,172.6,0.686,28.06,0,0,871.3184,0,25.85,2.915,181,0.98,1.454,0.01516336,0,52.1,60.38,33.81,35.77
"2016-02-20 04:30:00",223288,0.517,156.6,1.423,25.56,0,0,871.43,0,25.79,2.914,189,0.98,1.447,0.280522,0,52.1,60.38,33.81,35.77
"2016-02-20 04:40:00",223289,0.041,285.2,2.004,23.07,0,0,871.2551,0,25.6,2.912,185,0.98,1.452,0.1667969,0,52.1,60.38,33.81,35.77
"2016-02-20 04:50:00",223290,0.165,206.4,1.979,24.2,0,0,871.1857,0,25.39,2.92,168,0.98,1.452,0.05307174,0,52.1,60.38,33.81,35.77
"2016-02-20 05:00:00",223291,0.142,103.5,1.039,31.73,0,0,871.3773,0,26.04,2.914,189,0.98,1.449,0,0,52.1,60.38,33.81,35.77
"2016-02-20 05:10:00",223292,0.229,155,1.451,27.91,0,0,871.369,0,25.77,2.913,168,0.98,1.454,0.1554244,0,52.1,60.38,33.81,35.77
"2016-02-20 05:20:00",223293,0.364,118.9,1.479,29.48,0,0,871.2468,0,25.79,2.916,168,0.98,1.451,0.04549006,0,52.1,60.38,33.81,35.77
"2016-02-20 05:30:00",223294,0.76,143.5,1.191,30.2,0,0,871.1456,0,25.65,2.916,172,0.98,1.453,0.03411755,0,52.1,60.38,33.81,35.77
"2016-02-20 05:40:00",223295,0.735,132.9,1.818,20.8,0,0,871.2299,0,25.71,2.912,178,0.971,1.45,0.2236595,0,52.1,60.38,33.81,35.77
"2016-02-20 05:50:00",223296,1.302,132.4,2.135,17.95,0,0,870.9496,0,25.91,2.908,189,0.953,1.435,0.03411755,0,52.05,60.44,33.8,35.78
"2016-02-20 06:00:00",223297,0.86,46.71,2.505,18.66,0,0,870.6293,0,25.46,2.912,188,0.938,1.42,0.01895419,0,52.1,60.33,33.81,35.75
"2016-02-20 06:10:00",223298,1.006,131.4,2.221,23.63,0,0,870.05,0,25.66,2.913,188,0.941,1.438,0,0,52.1,60.38,33.81,35.77
"2016-02-20 06:20:00",223299,0.485,156.2,1.815,27.81,0,0,869.7971,0,25.65,2.916,168,0.939,1.456,0,0,52.05,60.33,33.8,35.75
"2016-02-20 06:30:00",223300,0.645,214.9,2.268,28.36,0.6015393,0,869.8898,0,25.04,2.915,169,0.937,1.43,0.8150303,0.681,52.1,60.33,33.81,35.75
"2016-02-20 06:40:00",223301,0.382,298.9,1.021,37.25,0.4285476,0,870.4966,0,25.41,2.926,168,0.939,1.463,0.04549006,0.04,52.1,60.38,33.81,35.77
"2016-02-20 06:50:00",223302,0.18,299.5,-0.166,40.58,5.138639,0,871.0172,0,25.59,2.924,187,0.957,1.433,2.520908,0.477,52.05,60.33,33.8,35.75
"2016-02-20 07:00:00",223303,0.659,138.5,0.142,36.51,20.6096,0,871.095,0,25.63,2.922,170,0.976,1.443,11.53931,0.56,52.05,60.33,33.8,35.75
"2016-02-20 07:10:00",223304,0.839,150.8,0.268,35.18,30.05731,0,871.2425,0,25.66,2.921,189,0.964,1.447,16.85786,0.561,52.05,60.33,33.8,35.75
"2016-02-20 07:20:00",223305,0.84,146.2,0.811,29.18,31.20927,0,871.152,0,25.85,2.915,177,0.949,1.433,18.124,0.581,52.1,60.33,33.81,35.75
"2016-02-20 07:30:00",223306,0.843,152.9,1.471,25.65,44.87169,0,871.0676,0,25.67,2.914,169,0.94,1.434,26.17574,0.583,52.1,60.33,33.81,35.75
"2016-02-20 07:40:00",223307,0.772,132.6,1.622,26.94,46.76673,0,871.015,0,25.71,2.915,179,0.937,1.442,26.77848,0.572,52.1,60.38,33.81,35.77
"2016-02-20 07:50:00",223308,1.14,129,1.417,27.93,50.82024,0,870.8612,0,25.58,2.917,188,0.937,1.441,29.30697,0.578,52.05,60.33,33.8,35.75
"2016-02-20 08:00:00",223309,0.809,145.1,1.376,27.96,56.02571,0,870.5324,0,25.55,2.918,168,0.939,1.456,31.96435,0.57,52.05,60.38,33.8,35.77
"2016-02-20 08:10:00",223310,0.914,92.9,1.487,29.13,66.95958,0,870.3829,0,25.44,2.914,173,0.944,1.439,38.33675,0.571,52.1,60.33,33.81,35.75
"2016-02-20 08:20:00",223311,0.808,47.7,2.137,29.27,71.7601,0,870.1321,0,25.89,2.91,195,0.967,1.456,41.04341,0.572,52.1,60.33,33.81,35.75
"2016-02-20 08:30:00",223312,0.466,344.4,2.143,31.05,77.72831,0,870.0311,0,25.71,2.912,193,1.005,1.456,44.64471,0.575,52.05,60.38,33.8,35.77
"2016-02-20 08:40:00",223313,0.45,339.8,1.794,33.9,79.61156,0,869.8983,0,25.71,2.915,168,0.981,1.456,45.07686,0.566,52.05,60.38,33.8,35.77
"2016-02-20 08:50:00",223314,0.836,119.7,2.211,32.7,74.47292,0,869.9931,0,25.54,2.911,193,0.982,1.456,42.98811,0.577,52.1,60.33,33.81,35.75
"2016-02-20 09:00:00",223315,1.08,104.2,2.344,34.38,60.65325,0,870.4355,0,25.76,2.909,197,0.982,1.456,35.53532,0.586,52.05,60.38,33.8,35.77
"2016-02-20 09:10:00",223316,1.423,149,2.83,48.86,72.47958,0,870.4398,0,25.69,2.907,186,0.98,1.456,43.04118,0.593,52.05,60.33,33.8,35.75
"2016-02-20 09:20:00",223317,0.785,102.3,3.298,48.35,98.67996,0,870.1507,0,25.54,2.906,177,0.969,1.457,58.31447,0.591,52.05,60.38,33.8,35.77
"2016-02-20 09:30:00",223318,0.226,336.5,3.422,47.19,109.146,0,869.9465,0,25.55,2.907,190,0.938,1.451,63.93628,0.586,52.05,60.33,33.8,35.75
"2016-02-20 09:40:00",223319,0.372,296.1,2.897,48.97,101.2552,0,869.9896,0,25.47,2.911,208,0.938,1.462,58.56087,0.578,52.1,60.38,33.81,35.77
"2016-02-20 09:50:00",223320,0.188,342.2,2.721,44.88,91.07203,0,870.1454,0,25.42,2.912,190,0.937,1.465,52.47645,0.576,52.05,60.38,33.8,35.77
"2016-02-20 10:00:00",223321,0.503,306.9,2.07,44.45,69.5034,0,870.3248,0,25.59,2.914,185,0.926,1.453,40.37018,0.581,52.05,60.38,33.8,35.77
"2016-02-20 10:10:00",223322,0.621,62.21,2.027,41.81,70.43204,0,870.2307,0,25.83,2.91,182,0.9,1.424,41.60177,0.59,52.05,60.33,33.8,35.75
"2016-02-20 10:20:00",223323,0.745,149,2.501,46.32,78.71042,0,869.874,0,25.46,2.911,190,0.875,1.395,46.82744,0.595,52.05,60.33,33.8,35.75
"2016-02-20 10:30:00",223324,0.641,154.7,2.702,48.81,68.61294,0,869.6268,0,25.57,2.91,190,0.88,1.378,40.88654,0.596,52.05,60.33,33.8,35.75
"2016-02-20 10:40:00",223325,0.9,166.8,2.413,55.88,79.21171,0,869.4119,0,25.5,2.913,191,0.898,1.375,47.41142,0.599,52.05,60.33,33.8,35.75
"2016-02-20 10:50:00",223326,0.579,100,2.209,58.11,97.3662,0,869.0369,0,25.58,2.914,192,0.887,1.373,58.40897,0.6,52.05,60.33,33.8,35.75
"2016-02-20 11:00:00",223327,0.579,16.32,1.605,66.2,83.79072,0,868.742,0,25.5,2.918,191,0.897,1.376,52.61082,0.629,52.05,60.33,33.8,35.75
"2016-02-20 11:10:00",223328,0.367,31.68,1.117,73,75.57189,0,868.4324,0,25.33,2.922,176,0.871,1.373,49.58641,0.656,52.05,60.33,33.8,35.75
"2016-02-20 11:20:00",223329,0.287,25.36,0.581,79.11,67.7661,0,868.1607,0,25.41,2.924,208,0.87,1.382,46.79336,0.693,52.05,60.33,33.8,35.75
"2016-02-20 11:30:00",223330,0.179,176.2,0.349,86.7,47.4818,0,867.9459,0,25.35,2.926,201,0.857,1.408,37.36113,0.789,52.05,60.33,33.8,35.75
"2016-02-20 11:40:00",223331,0.106,116.5,-0.013,92.3,42.6554,0,867.5141,0,25.74,2.923,199,0.86,1.405,38.24787,0.896,51.99,60.33,33.79,35.75
"2016-02-20 11:50:00",223332,0.183,121.6,-0.068,97.1,46.62106,0,867.0781,0,23.48,2.946,212,0.864,1.413,45.38737,0.973,52.05,60.33,33.8,35.75
"2016-02-20 12:00:00",223333,0.248,120.4,-0.093,100,58.51804,0,866.5853,0,25.98,2.921,191,0.891,1.366,61.99695,1.058,52.05,60.27,33.8,35.74
"2016-02-20 12:10:00",223334,0.156,22.26,-0.088,99.9,58.86853,0,866.2377,0,25.51,2.925,187,0.881,1.386,66.76119,1.134,51.99,60.33,33.79,35.75
"2016-02-20 12:20:00",223335,0.223,17.2,-0.025,100,64.42681,0,865.8945,0,26.62,2.915,187,0.867,1.402,74.18211,1.151,52.05,60.33,33.8,35.75
"2016-02-20 12:30:00",223336,0.118,0.793,-0.103,100,83.46785,0,865.6754,0,26.78,2.912,194,0.879,1.377,96.02818,1.15,51.99,60.33,33.79,35.75
"2016-02-20 12:40:00",223337,0.216,34.3,0.158,100,115.9673,0,865.2057,0,26.88,2.909,185,0.895,1.385,131.711,1.139,51.99,60.33,33.79,35.75
"2016-02-20 12:50:00",223338,0.482,346.7,0.733,99.6,179.6607,0,864.7634,0,27.27,2.903,192,0.953,1.393,173.1815,0.966,52.05,60.33,33.8,35.75
"2016-02-20 13:00:00",223339,0.723,296.8,1.181,99.7,222.7679,0,864.4601,0,27.47,2.896,185,0.954,1.386,154.4799,0.696,52.05,60.33,33.8,35.75
"2016-02-20 13:10:00",223340,1.022,152.2,2.488,91.2,169.4831,0,864.142,0,27.49,2.889,184,0.941,1.376,109.6993,0.647,51.99,60.33,33.79,35.75
"2016-02-20 13:20:00",223341,1.505,146.9,3.436,84.3,149.8044,0,863.7776,0,26.97,2.892,169,0.938,1.371,93.18205,0.622,51.99,60.33,33.79,35.75
"2016-02-20 13:30:00",223342,1.234,152.1,3.68,84.5,166.004,0,863.4027,0,26.79,2.892,187,0.936,1.369,99.91921,0.602,51.99,60.33,33.79,35.75
"2016-02-20 13:40:00",223343,1.094,157.7,3.737,86.3,124.7395,0,863.3226,0.5,26.65,2.894,173,0.935,1.368,73.72564,0.591,52.05,60.33,33.8,35.75
"2016-02-20 13:50:00",223344,1.102,152.7,3.762,87.4,87.44102,0,862.933,0,26.47,2.896,177,0.935,1.368,52.25024,0.598,51.99,60.33,33.79,35.75
"2016-02-20 14:00:00",223345,1.059,150.3,3.626,88.9,100.6782,0,862.6613,0.5,26.38,2.896,184,0.935,1.369,58.87436,0.585,51.99,60.27,33.79,35.74
"2016-02-20 14:10:00",223346,1.361,142.7,3.806,88.3,104.0622,0,862.1263,0,26.5,2.893,193,0.935,1.369,60.22344,0.579,51.99,60.33,33.79,35.75
"2016-02-20 14:20:00",223347,1.649,165.9,4.236,84.5,93.93385,0,861.8399,0,26.3,2.895,189,0.935,1.369,54.19806,0.577,51.99,60.27,33.79,35.74
"2016-02-20 14:30:00",223348,0.906,166.8,3.905,88.7,82.47314,0,861.5577,0.5,26.65,2.892,189,0.935,1.369,47.41857,0.575,51.99,60.27,33.79,35.74
"2016-02-20 14:40:00",223349,0.746,164.4,4.1,87.7,71.24038,0,861.3365,0,26.15,2.897,190,0.935,1.368,41.16961,0.578,51.99,60.27,33.79,35.74
"2016-02-20 14:50:00",223350,0.718,168.9,3.928,90.2,45.3673,0,861.1849,0,26.35,2.895,187,0.934,1.369,26.67081,0.589,51.94,60.27,33.77,35.74
"2016-02-20 15:00:00",223351,1.228,157.4,4.102,89,33.72186,0,860.9026,0,25.86,2.898,174,0.935,1.372,20.44838,0.606,51.99,60.27,33.79,35.74
"2016-02-20 15:10:00",223352,1.744,152.1,4.562,85.8,34.63762,0,860.5888,0,25.91,2.896,171,0.935,1.374,20.67954,0.598,51.99,60.27,33.79,35.74
"2016-02-20 15:20:00",223353,0.961,155.8,4.552,87,35.33328,0,860.3529,0.5,26.01,2.897,193,0.934,1.37,20.36122,0.576,51.99,60.27,33.79,35.74
"2016-02-20 15:30:00",223354,1.24,148.1,4.545,88.1,32.38163,0,859.9379,0,25.6,2.899,183,0.934,1.371,18.72793,0.578,51.94,60.27,33.77,35.74
"2016-02-20 15:40:00",223355,1.487,150.4,4.821,86.7,35.18,0,859.4473,0,25.89,2.895,197,0.935,1.373,20.1869,0.574,51.94,60.27,33.77,35.74
"2016-02-20 15:50:00",223356,1.571,142.1,5.377,83.9,32.78252,0,859.2408,0.5,25.12,2.9,177,0.935,1.369,19.15615,0.584,51.94,60.27,33.77,35.74
"2016-02-20 16:00:00",223357,1.225,167,5.221,87.1,27.09933,0,859.0365,0,25.64,2.895,173,0.935,1.368,15.73419,0.581,51.99,60.27,33.79,35.74
"2016-02-20 16:10:00",223358,1.957,157.6,5.634,87.5,21.05062,0,858.769,0,25.44,2.895,173,0.935,1.368,12.30086,0.584,51.94,60.27,33.77,35.74
"2016-02-20 16:20:00",223359,1.214,155.5,5.732,88.4,17.026,0,858.4005,0.5,24.87,2.902,173,0.931,1.368,9.526915,0.558,51.99,60.27,33.79,35.74
"2016-02-20 16:30:00",223360,1.157,137.2,5.593,90.7,12.87955,0,858.074,0.5,24.36,2.907,173,0.932,1.368,7.128133,0.554,51.99,60.27,33.79,35.74
"2016-02-20 16:40:00",223361,1.327,145.8,5.826,90.9,11.3939,0,857.7201,0.5,24.7,2.901,183,0.93,1.368,6.256538,0.55,51.94,60.27,33.77,35.74
"2016-02-20 16:50:00",223362,1.599,138.8,6.105,89.8,6.960538,0,857.7728,0.5,24.47,2.903,187,0.922,1.368,3.903231,0.559,52.05,60.27,33.8,35.74
"2016-02-20 17:00:00",223363,1.364,156.7,6.273,90.2,4.637739,0,857.6043,1,24.19,2.906,182,0.9,1.368,2.379834,0.507,52.05,60.27,33.8,35.74
"2016-02-20 17:10:00",223364,1.367,171.7,6.364,92.8,3.651237,0,857.2126,0.5,24.19,2.902,182,0.88,1.368,1.773507,0.484,52.05,60.27,33.8,35.74
"2016-02-20 17:20:00",223365,1.832,160.1,6.91,89.4,2.424987,0,856.8124,0.5,23.62,2.906,184,0.861,1.375,1.152022,0.466,52.16,60.27,33.83,35.74
"2016-02-20 17:30:00",223366,1.123,164.8,6.766,90.9,0.6131248,0,856.8608,0.5,24.27,2.903,218,0.858,1.381,0.1023177,0.1,52.16,60.27,33.83,35.74
"2016-02-20 17:40:00",223367,0.944,333,6.333,97.1,0.1572115,0,856.9619,1.5,22.89,2.918,188,0.863,1.384,0,0,52.27,60.27,33.85,35.74
"2016-02-20 17:50:00",223368,1.266,140.4,6.385,100,0.2122355,0,856.8608,0.5,23.56,2.91,174,0.868,1.392,0,0,52.38,60.27,33.88,35.74
"2016-02-20 18:00:00",223369,0.837,110.3,6.45,99.6,0.2790504,0,856.8145,1,23.13,2.914,174,0.889,1.381,0.01515818,0.024,52.49,60.33,33.91,35.75
"2016-02-20 18:10:00",223370,0.907,51.56,6.615,100,0.2358172,0,856.787,0.5,22.5,2.92,189,0.913,1.379,0,0,52.6,60.33,33.94,35.75
"2016-02-20 18:20:00",223371,0.839,101.4,6.626,100,0.2083052,0,856.6691,1,22.56,2.919,195,0.93,1.381,0,0,52.72,60.33,33.96,35.75
"2016-02-20 18:30:00",223372,0.904,320.1,6.698,100,0.3262138,0,856.6481,0.5,22.29,2.923,187,0.93,1.392,0,0,52.94,60.38,34.02,35.77
"2016-02-20 18:40:00",223373,0.724,349.2,5.927,100,0.07074516,0,857.2778,1.5,21.24,2.942,182,0.935,1.397,0,0,53.11,60.44,34.06,35.78
"2016-02-20 18:50:00",223374,0.363,352,4.188,100,0,0,857.9012,1.5,21.76,2.944,177,0.91,1.369,0,0,53.28,60.56,34.1,35.81
"2016-02-20 19:00:00",223375,1.022,147.8,4.857,100,0.8921751,0,857.5558,0,21.7,2.932,179,0.913,1.369,0.507799,0.4,53.56,60.98,34.17,35.9
"2016-02-20 19:10:00",223376,0.927,50.34,6.286,100,0.9275477,0,857.6991,0.5,21.81,2.928,185,0.917,1.369,0.2538995,0.202,53.84,61.52,34.23,36.02
"2016-02-20 19:20:00",223377,0.993,33.3,6.221,100,0.2122355,0,858.0234,0.5,21.36,2.934,174,0.915,1.379,0,0,54.07,62.42,34.29,36.23
"2016-02-20 19:30:00",223378,0.773,350.8,5.657,100,0.1139783,0,858.3878,0.5,21.16,2.941,187,0.868,1.404,0,0,54.35,63.39,34.36,36.44
"2016-02-20 19:40:00",223379,0.909,54.93,5.746,100,0.3458652,0,858.6005,0.5,21.61,2.932,196,0.88,1.384,0.04547453,0.078,54.58,64.3,34.41,36.65
"2016-02-20 19:50:00",223380,0.879,27.66,5.866,100,0.2083052,0,858.3351,0.5,20.19,2.946,187,0.869,1.388,0,0,54.75,65.96,34.45,37.01
"2016-02-20 20:00:00",223381,0.862,66.8,5.814,100,0.1218389,0,858.2088,0.5,21.03,2.94,174,0.887,1.384,0,0,54.86,66.82,34.48,37.2
"2016-02-20 20:10:00",223382,0.907,51.41,5.581,100,0.09432688,0,858.1856,0.5,20.47,2.946,182,0.912,1.377,0,0,54.97,67.44,34.51,37.34
"2016-02-20 20:20:00",223383,0.621,38.05,5.472,100,0.1572115,0,857.9897,0.5,20.49,2.946,183,0.93,1.381,0,0,55.03,67.51,34.52,37.35
"2016-02-20 20:30:00",223384,0.82,125.9,5.349,100,0.1296995,0,857.657,0,20.62,2.945,181,0.935,1.368,0,0,55.15,67.57,34.55,37.37
"2016-02-20 20:40:00",223385,0.787,146.5,5.558,100,0.2593989,0,857.3789,0,20.52,2.945,179,0.935,1.371,0.007579089,0.013,55.32,67.57,34.59,37.37
"2016-02-20 20:50:00",223386,1.019,145.7,5.642,100,0.08646631,0,857.1578,0,21.02,2.939,191,0.935,1.368,0,0,55.37,67.57,34.6,37.37
"2016-02-20 21:00:00",223387,0.64,156.4,5.793,100,0.1886538,0,857.0419,0,20.57,2.943,182,0.935,1.368,0,0,55.43,67.57,34.61,37.37
"2016-02-20 21:10:00",223388,0.547,134.8,5.768,100,0.1493509,0,856.9219,0.5,20.48,2.945,193,0.935,1.368,0,0,55.37,67.57,34.6,37.37
"2016-02-20 21:20:00",223389,0.222,359,5.613,100,0.1729326,0,857.044,0,20.44,2.947,224,0.935,1.368,0,0,55.37,67.57,34.6,37.37
"2016-02-20 21:30:00",223390,0.503,77.28,5.28,100,0.1690023,0,856.9282,0,20.57,2.945,201,0.921,1.368,0.01136863,0.019,55.37,67.51,34.6,37.35
"2016-02-20 21:40:00",223391,0.462,2.137,5.213,100,0.1336298,0,856.766,0,19.95,2.953,192,0.91,1.368,0,0,55.32,67.57,34.59,37.37
"2016-02-20 21:50:00",223392,0.322,329.7,4.826,100,0.0314423,0,857.1199,0,20.16,2.955,180,0.875,1.368,0,0,55.26,67.57,34.57,37.37
"2016-02-20 22:00:00",223393,0.33,328.2,3.974,100,0,0,857.0946,0,19.99,2.96,170,0.855,1.372,0,0,55.2,67.51,34.56,37.35
"2016-02-20 22:10:00",223394,0.268,341.4,3.248,100,0,0,857.1662,0,20.16,2.962,174,0.85,1.378,0,0,55.15,67.51,34.55,37.35
"2016-02-20 22:20:00",223395,0.415,324.3,2.735,100,0,0,857.2589,0,19.84,2.97,179,0.85,1.399,0,0,55.09,67.51,34.53,37.35
"2016-02-20 22:30:00",223396,0.055,31.44,1.886,100,0,0,857.3389,0,19.83,2.972,182,0.869,1.392,0,0,55.09,67.51,34.53,37.35
"2016-02-20 22:40:00",223397,0.152,321.5,1.457,100,0,0,857.4127,0,19.98,2.974,189,0.899,1.37,0,0,55.09,67.51,34.53,37.35
"2016-02-20 22:50:00",223398,0.228,339,1.012,100,0,0,857.8192,0,20.17,2.973,169,0.92,1.367,0,0,54.97,67.51,34.51,37.35
"2016-02-20 23:00:00",223399,0,0,1.097,100,0,0,858.0192,0,20.07,2.974,191,0.921,1.364,0,0,54.97,67.51,34.51,37.35
"2016-02-20 23:10:00",223400,0.268,181.3,1.003,100,0.1021875,0,857.8254,0,19.83,2.976,170,0.877,1.366,0,0,54.92,67.51,34.49,37.35
"2016-02-20 23:20:00",223401,0.305,185.4,1.279,100,0.4912859,0,857.7833,0,19.79,2.974,169,0.849,1.374,0.1705295,0.272,54.86,67.44,34.48,37.34
"2016-02-20 23:30:00",223402,0.41,181.4,1.763,100,0.7074516,0,857.8697,0,19.85,2.972,173,0.849,1.369,0.3637963,0.463,54.8,67.44,34.46,37.34
"2016-02-20 23:40:00",223403,0.199,149.6,1.751,100,0.1847235,0,857.8339,0,19.86,2.971,174,0.849,1.333,0.007579089,0.032,54.8,67.44,34.46,37.34
"2016-02-20 23:50:00",223404,0.217,142.4,2.226,100,0.5974036,0,858.0634,0,19.7,2.97,179,0.85,1.319,0.3486381,0.565,54.75,67.44,34.45,37.34
